Regional Weather Roundup
Issued by NWS

Home | Current Version | Previous Version | Text Only | Print | Product List | Glossary On
Versions: 1 2 3 4 5 6 7 8 9 10 11 12 13 14 15 16 17 18 19 20 21 22 23 24 25 26 27 28 29 30 31 32 33 34 35 36 37 38 39 40 41 42 43 44 45 46 47 48 49 50
631
ASUS44 KJAN 201710
RWRMS

MISSISSIPPI HOURLY WEATHER ROUNDUP
NATIONAL WEATHER SERVICE JACKSON MS
1100 AM CST MON NOV 20 2017

NOTE: "FAIR: INDICATES FEW OR NO CLOUDS BELOW 12,000 FEET WITH NO
SIGNIFICANT WEATHER AND/OR OBSTRUCTIONS TO VISIBILITY.

MSZ001>002-007>008-010>013-018>021-025>028-034>036-201800-
NORTHWEST MISSISSIPPI

CITY           SKY/WX    TMP DP  RH WIND       PRES   REMARKS
BATESVILLE     FAIR      49  24  38 S3        30.26F
CLARKSDALE       N/A     48  30  49 S7        30.27F
CLEVELAND      FAIR      48  29  47 S5        30.26F
GREENWOOD      MOSUNNY   51  30  44 VRB5      30.25F
GREENVILLE     SUNNY     48  27  44 S7        30.26F
OLIVE BRANCH   PTSUNNY  N/A N/A N/A S9        30.21F
TUNICA           N/A    N/A N/A N/A S8        30.27F
WINONA         FAIR      47  29  48 CALM      30.25F
$$

MSZ003>006-009-014>017-022>024-029>033-037>039-201800-
NORTHEAST MISSISSIPPI

CITY           SKY/WX    TMP DP  RH WIND       PRES   REMARKS
ABERDEEN       FAIR      52  45  76 CALM      30.27F
COLUMBUS AFB   MOSUNNY   49  31  49 SE5       30.25F
CORINTH        FAIR      46  28  49 VRB3      30.25F
GOLDN TRIANGLE SUNNY     49  29  46 CALM      30.26F
STARKVILLE     FAIR      50  30  46 E3        30.27F
TUPELO         SUNNY     47  26  44 CALM      30.26F
$$

MSZ040-058-201800-
CENTRAL MISSISSIPPI

CITY           SKY/WX    TMP DP  RH WIND       PRES   REMARKS
JACKSON INTL   CLOUDY    52  29  41 S5        30.24F
JACKSON HAWKNS CLOUDY    49  31  49 S3        30.25F
MADISON        FAIR      46  32  57 CALM      30.24F
MERIDIAN KEY   CLOUDY    52  29  41 VRB6      30.24F
MERIDIAN NAS   CLOUDY    51  30  44 E3        30.25F
RAYMOND        FAIR      52  34  50 CALM      30.25F
VICKSBURG VKS  SUNNY     52  30  43 VRB5      30.27F
$$

MSZ059>079-201800-
SOUTH MISSISSIPPI

CITY           SKY/WX    TMP DP  RH WIND       PRES   REMARKS
COLUMBIA       DRIZZLE   50  34  53 CALM      30.28F
HATTIESBURG    PTSUNNY   50  32  50 E8        30.24F
LAUREL         FAIR      48  29  49 CALM      30.26S
MCCOMB         MOSUNNY   50  31  48 VRB5      30.24F
NATCHEZ        MOSUNNY   53  31  42 VRB6      30.26F
PINE BELT      CLOUDY    51  31  46 N5        30.25F
$$

MSZ080>082-201800-
COASTAL MISSISSIPPI

CITY           SKY/WX    TMP DP  RH WIND       PRES   REMARKS
BAY ST LOUIS   MOSUNNY   50  36  57 SE5       30.24F
BILOXI         PTSUNNY   51  35  56 SE5       30.22F
PASCAGOULA     PTSUNNY   54  34  46 VRB3      30.23F
GULFPORT       PTSUNNY   51  36  56 VRB5      30.23F
$$

LAZ007>009-015>016-023>026-201800-
NORTHEAST LOUISIANA

CITY           SKY/WX    TMP DP  RH WIND       PRES   REMARKS
BASTROP        FAIR      50  29  45 S5        30.28S
TALLULAH/VBURG CLOUDY    49  31  49 VRB5      30.27F
VIDALIA          N/A    N/A N/A N/A MISG      30.26F
$$




USA.gov is the U.S. government's official web portal to all federal, state and local government web resources and services.